User: anonymous   Login
Location: Laverne
(36.7100°N, 99.8930°W)
Time: 02:25:10
(UTC-06:00)
Language:

Iridium 32 - Orbit

View from above orbital plane
View from above orbital plane
View from above satellite
View from above satellite

Ground track
Ground track

The orbit data is extracted from the following two-line orbital elements,

1 24945U 97051B   17022.54382942  .00000119  00000-0  35599-4 0  9991
2 24945  86.3973 347.9906 0002160  89.0038 271.1405 14.34215917 13547
Epoch (UTC): 22 January 2017 13:03:06
Eccentricity: 0.0002160
inclination: 86.3973°
perigee height: 776 km
apogee height: 779 km
right ascension of ascending node: 347.9906°
argument of perigee: 89.0038°
revolutions per day: 14.34215917
mean anomaly at epoch: 271.1405°
orbit number at epoch: 1354

The dashed part of the orbit path shows where the satellite is in the earth's shadow,  

DLR